Year,Month,Day,Hour,Minute,Value (Times are PST for temperature in C)
2018,07,17,00,00,19.20
2018,07,17,00,01,19.20
2018,07,17,00,02,19.20
2018,07,17,00,03,19.20
2018,07,17,00,04,19.20
2018,07,17,00,05,19.10
2018,07,17,00,06,19.10
2018,07,17,00,07,19.10
2018,07,17,00,08,19.10
2018,07,17,00,09,19.10
2018,07,17,00,10,19.10
2018,07,17,00,11,19.10
2018,07,17,00,12,19.10
2018,07,17,00,13,19.10
2018,07,17,00,14,19.00
2018,07,17,00,15,19.00
2018,07,17,00,16,19.00
2018,07,17,00,17,19.00
2018,07,17,00,18,19.00
2018,07,17,00,19,18.90
2018,07,17,00,20,18.90
2018,07,17,00,21,18.90
2018,07,17,00,22,18.90
2018,07,17,00,23,18.90
2018,07,17,00,24,18.90
2018,07,17,00,25,18.90
2018,07,17,00,26,18.80
2018,07,17,00,27,18.80
2018,07,17,00,28,18.80
2018,07,17,00,29,18.80
2018,07,17,00,30,18.80
2018,07,17,00,31,18.80
2018,07,17,00,32,18.80
2018,07,17,00,33,18.80
2018,07,17,00,34,18.80
2018,07,17,00,35,18.70
2018,07,17,00,36,18.70
2018,07,17,00,37,18.70
2018,07,17,00,38,18.70
2018,07,17,00,39,18.70
2018,07,17,00,40,18.70
2018,07,17,00,41,18.70
2018,07,17,00,42,18.60
2018,07,17,00,43,18.60
2018,07,17,00,44,18.60
2018,07,17,00,45,18.60
2018,07,17,00,46,18.60
2018,07,17,00,47,18.60
2018,07,17,00,48,18.60
2018,07,17,00,49,18.60
2018,07,17,00,50,18.60
2018,07,17,00,51,18.60
2018,07,17,00,52,18.60
2018,07,17,00,53,18.50
2018,07,17,00,54,18.50
2018,07,17,00,55,18.50
2018,07,17,00,56,18.50
2018,07,17,00,57,18.50
2018,07,17,00,58,18.40
2018,07,17,00,59,18.40
2018,07,17,01,00,18.40
2018,07,17,01,01,18.40
2018,07,17,01,02,18.40
2018,07,17,01,03,18.40
2018,07,17,01,04,18.40
2018,07,17,01,05,18.30
2018,07,17,01,06,18.30
2018,07,17,01,07,18.30
2018,07,17,01,08,18.30
2018,07,17,01,09,18.30
2018,07,17,01,10,18.30
2018,07,17,01,11,18.30
2018,07,17,01,12,18.20
2018,07,17,01,13,18.20
2018,07,17,01,14,18.20
2018,07,17,01,15,18.20
2018,07,17,01,16,18.20
2018,07,17,01,17,18.20
2018,07,17,01,18,18.20
2018,07,17,01,19,18.20
2018,07,17,01,20,18.20
2018,07,17,01,21,18.20
2018,07,17,01,22,18.20
2018,07,17,01,23,18.20
2018,07,17,01,24,18.20
2018,07,17,01,25,18.20
2018,07,17,01,26,18.20
2018,07,17,01,27,18.10
2018,07,17,01,28,18.10
2018,07,17,01,29,18.10
2018,07,17,01,30,18.10
2018,07,17,01,31,18.10
2018,07,17,01,32,18.10
2018,07,17,01,33,18.10
2018,07,17,01,34,18.10
2018,07,17,01,35,18.10
2018,07,17,01,36,18.10
2018,07,17,01,37,18.10
2018,07,17,01,38,18.10
2018,07,17,01,39,18.10
2018,07,17,01,40,18.10
2018,07,17,01,41,18.00
2018,07,17,01,42,18.00
2018,07,17,01,43,18.00
2018,07,17,01,44,18.00
2018,07,17,01,45,17.90
2018,07,17,01,46,17.90
2018,07,17,01,47,17.90
2018,07,17,01,48,17.90
2018,07,17,01,49,17.90
2018,07,17,01,50,17.80
2018,07,17,01,51,17.80
2018,07,17,01,52,17.80
2018,07,17,01,53,17.80
2018,07,17,01,54,17.80
2018,07,17,01,55,17.80
2018,07,17,01,56,17.70
2018,07,17,01,57,17.70
2018,07,17,01,58,17.70
2018,07,17,01,59,17.70
2018,07,17,02,00,17.70
2018,07,17,02,01,17.70
2018,07,17,02,02,17.70
2018,07,17,02,03,17.70
2018,07,17,02,04,17.70
2018,07,17,02,05,17.70
2018,07,17,02,06,17.60
2018,07,17,02,07,17.60
2018,07,17,02,08,17.60
2018,07,17,02,09,17.60
2018,07,17,02,10,17.60
2018,07,17,02,11,17.60
2018,07,17,02,12,17.60
2018,07,17,02,13,17.60
2018,07,17,02,14,17.50
2018,07,17,02,15,17.50
2018,07,17,02,16,17.50
2018,07,17,02,17,17.50
2018,07,17,02,18,17.50
2018,07,17,02,19,17.50
2018,07,17,02,20,17.40
2018,07,17,02,21,17.40
2018,07,17,02,22,17.40
2018,07,17,02,23,17.40
2018,07,17,02,24,17.40
2018,07,17,02,25,17.40
2018,07,17,02,26,17.40
2018,07,17,02,27,17.30
2018,07,17,02,28,17.30
2018,07,17,02,29,17.30
2018,07,17,02,30,17.30
2018,07,17,02,31,17.30
2018,07,17,02,32,17.30
2018,07,17,02,33,17.30
2018,07,17,02,34,17.30
2018,07,17,02,35,17.30
2018,07,17,02,36,17.30
2018,07,17,02,37,17.30
2018,07,17,02,38,17.30
2018,07,17,02,39,17.30
2018,07,17,02,40,17.30
2018,07,17,02,41,17.20
2018,07,17,02,42,17.20
2018,07,17,02,43,17.20
2018,07,17,02,44,17.20
2018,07,17,02,45,17.20
2018,07,17,02,46,17.20
2018,07,17,02,47,17.20
2018,07,17,02,48,17.20
2018,07,17,02,49,17.20
2018,07,17,02,50,17.20
2018,07,17,02,51,17.20
2018,07,17,02,52,17.20
2018,07,17,02,53,17.20
2018,07,17,02,54,17.20
2018,07,17,02,55,17.20
2018,07,17,02,56,17.20
2018,07,17,02,57,17.10
2018,07,17,02,58,17.10
2018,07,17,02,59,17.10
2018,07,17,03,00,17.10
2018,07,17,03,01,17.10
2018,07,17,03,02,17.10
2018,07,17,03,03,17.10
2018,07,17,03,04,17.10
2018,07,17,03,05,17.10
2018,07,17,03,06,17.20
2018,07,17,03,07,17.20
2018,07,17,03,08,17.20
2018,07,17,03,09,17.20
2018,07,17,03,10,17.20
2018,07,17,03,11,17.20
2018,07,17,03,12,17.20
2018,07,17,03,13,17.20
2018,07,17,03,14,17.20
2018,07,17,03,15,17.20
2018,07,17,03,16,17.20
2018,07,17,03,17,17.20
2018,07,17,03,18,17.20
2018,07,17,03,19,17.20
2018,07,17,03,20,17.20
2018,07,17,03,21,17.20
2018,07,17,03,22,17.20
2018,07,17,03,23,17.20
2018,07,17,03,24,17.10
2018,07,17,03,25,17.10
2018,07,17,03,26,17.10
2018,07,17,03,27,17.10
2018,07,17,03,28,17.10
2018,07,17,03,29,17.00
2018,07,17,03,30,17.00
2018,07,17,03,31,17.00
2018,07,17,03,32,17.00
2018,07,17,03,33,16.90
2018,07,17,03,34,16.90
2018,07,17,03,35,16.90
2018,07,17,03,36,16.90
2018,07,17,03,37,16.90
2018,07,17,03,38,16.80
2018,07,17,03,39,16.80
2018,07,17,03,40,16.80
2018,07,17,03,41,16.80
2018,07,17,03,42,16.80
2018,07,17,03,43,16.80
2018,07,17,03,44,16.70
2018,07,17,03,45,16.70
2018,07,17,03,46,16.70
2018,07,17,03,47,16.70
2018,07,17,03,48,16.70
2018,07,17,03,49,16.70
2018,07,17,03,50,16.70
2018,07,17,03,51,16.70
2018,07,17,03,52,16.70
2018,07,17,03,53,16.70
2018,07,17,03,54,16.70
2018,07,17,03,55,16.70
2018,07,17,03,56,16.70
2018,07,17,03,57,16.70
2018,07,17,03,58,16.70
2018,07,17,03,59,16.70
2018,07,17,04,00,16.60
2018,07,17,04,01,16.60
2018,07,17,04,02,16.60
2018,07,17,04,03,16.60
2018,07,17,04,04,16.60
2018,07,17,04,05,16.60
2018,07,17,04,06,16.60
2018,07,17,04,07,16.60
2018,07,17,04,08,16.50
2018,07,17,04,09,16.50
2018,07,17,04,10,16.50
2018,07,17,04,11,16.50
2018,07,17,04,12,16.50
2018,07,17,04,13,16.40
2018,07,17,04,14,16.40
2018,07,17,04,15,16.40
2018,07,17,04,16,16.40
2018,07,17,04,17,16.40
2018,07,17,04,18,16.40
2018,07,17,04,19,16.40
2018,07,17,04,20,16.40
2018,07,17,04,21,16.40
2018,07,17,04,22,16.40
2018,07,17,04,23,16.30
2018,07,17,04,24,16.30
2018,07,17,04,25,16.30
2018,07,17,04,26,16.30
2018,07,17,04,27,16.30
2018,07,17,04,28,16.30
2018,07,17,04,29,16.30
2018,07,17,04,30,16.30
2018,07,17,04,31,16.30
2018,07,17,04,32,16.30
2018,07,17,04,33,16.30
2018,07,17,04,34,16.30
2018,07,17,04,35,16.30
2018,07,17,04,36,16.30
2018,07,17,04,37,16.30
2018,07,17,04,38,16.30
2018,07,17,04,39,16.30
2018,07,17,04,40,16.30
2018,07,17,04,41,16.30
2018,07,17,04,42,16.30
2018,07,17,04,43,16.30
2018,07,17,04,44,16.30
2018,07,17,04,45,16.30
2018,07,17,04,46,16.30
2018,07,17,04,47,16.30
2018,07,17,04,48,16.30
2018,07,17,04,49,16.30
2018,07,17,04,50,16.30
2018,07,17,04,51,16.30
2018,07,17,04,52,16.30
2018,07,17,04,53,16.30
2018,07,17,04,54,16.30
2018,07,17,04,55,16.30
2018,07,17,04,56,16.30
2018,07,17,04,57,16.30
2018,07,17,04,58,16.30
2018,07,17,04,59,16.30
2018,07,17,05,00,16.30
2018,07,17,05,01,16.30
2018,07,17,05,02,16.30
2018,07,17,05,03,16.30
2018,07,17,05,04,16.30
2018,07,17,05,05,16.30
2018,07,17,05,06,16.30
2018,07,17,05,07,16.30
2018,07,17,05,08,16.30
2018,07,17,05,09,16.30
2018,07,17,05,10,16.30
2018,07,17,05,11,16.30
2018,07,17,05,12,16.30
2018,07,17,05,13,16.40
2018,07,17,05,14,16.30
2018,07,17,05,15,16.30
2018,07,17,05,16,16.30
2018,07,17,05,17,16.30
2018,07,17,05,18,16.30
2018,07,17,05,19,16.30
2018,07,17,05,20,16.30
2018,07,17,05,21,16.30
2018,07,17,05,22,16.30
2018,07,17,05,23,16.30
2018,07,17,05,24,16.30
2018,07,17,05,25,16.30
2018,07,17,05,26,16.30
2018,07,17,05,27,16.30
2018,07,17,05,28,16.30
2018,07,17,05,29,16.20
2018,07,17,05,30,16.20
2018,07,17,05,31,16.20
2018,07,17,05,32,16.20
2018,07,17,05,33,16.20
2018,07,17,05,34,16.10
2018,07,17,05,35,16.10
2018,07,17,05,36,16.10
2018,07,17,05,37,16.10
2018,07,17,05,38,16.00
2018,07,17,05,39,16.00
2018,07,17,05,40,16.00
2018,07,17,05,41,15.90
2018,07,17,05,42,15.90
2018,07,17,05,43,15.90
2018,07,17,05,44,15.90
2018,07,17,05,45,15.80
2018,07,17,05,46,15.80
2018,07,17,05,47,15.80
2018,07,17,05,48,15.80
2018,07,17,05,49,15.80
2018,07,17,05,50,15.80
2018,07,17,05,51,15.70
2018,07,17,05,52,15.70
2018,07,17,05,53,15.70
2018,07,17,05,54,15.70
2018,07,17,05,55,15.70
2018,07,17,05,56,15.70
2018,07,17,05,57,15.60
2018,07,17,05,58,15.60
2018,07,17,05,59,15.60
2018,07,17,06,00,15.60
2018,07,17,06,01,15.60
2018,07,17,06,02,15.60
2018,07,17,06,03,15.50
2018,07,17,06,04,15.50
2018,07,17,06,05,15.50
2018,07,17,06,06,15.50
2018,07,17,06,07,15.50
2018,07,17,06,08,15.40
2018,07,17,06,09,15.40
2018,07,17,06,10,15.40
2018,07,17,06,11,15.40
2018,07,17,06,12,15.40
2018,07,17,06,13,15.40
2018,07,17,06,14,15.40
2018,07,17,06,15,15.40
2018,07,17,06,16,15.30
2018,07,17,06,17,15.30
2018,07,17,06,18,15.30
2018,07,17,06,19,15.30
2018,07,17,06,20,15.30
2018,07,17,06,21,15.30
2018,07,17,06,22,15.30
2018,07,17,06,23,15.30
2018,07,17,06,24,15.30
2018,07,17,06,25,15.30
2018,07,17,06,26,15.30
2018,07,17,06,27,15.30
2018,07,17,06,28,15.30
2018,07,17,06,29,15.30
2018,07,17,06,30,15.30
2018,07,17,06,31,15.30
2018,07,17,06,32,15.30
2018,07,17,06,33,15.30
2018,07,17,06,34,15.30
2018,07,17,06,35,15.30
2018,07,17,06,36,15.30
2018,07,17,06,37,15.30
2018,07,17,06,38,15.40
2018,07,17,06,39,15.40
2018,07,17,06,40,15.40
2018,07,17,06,41,15.40
2018,07,17,06,42,15.40
2018,07,17,06,43,15.40
2018,07,17,06,44,15.40
2018,07,17,06,45,15.40
2018,07,17,06,46,15.40
2018,07,17,06,47,15.40
2018,07,17,06,48,15.50
2018,07,17,06,49,15.50
2018,07,17,06,50,15.50
2018,07,17,06,51,15.50
2018,07,17,06,52,15.50
2018,07,17,06,53,15.50
2018,07,17,06,54,15.50
2018,07,17,06,55,15.60
2018,07,17,06,56,15.60
2018,07,17,06,57,15.60
2018,07,17,06,58,15.60
2018,07,17,06,59,15.60
2018,07,17,07,00,15.70
2018,07,17,07,01,15.70
2018,07,17,07,02,15.70
2018,07,17,07,03,15.70
2018,07,17,07,04,15.70
2018,07,17,07,05,15.80
2018,07,17,07,06,15.80
2018,07,17,07,07,15.80
2018,07,17,07,08,15.80
2018,07,17,07,09,15.90
2018,07,17,07,10,15.90
2018,07,17,07,11,15.90
2018,07,17,07,12,16.00
2018,07,17,07,13,16.00
2018,07,17,07,14,16.10
2018,07,17,07,15,16.10
2018,07,17,07,16,16.20
2018,07,17,07,17,16.20
2018,07,17,07,18,16.20
2018,07,17,07,19,16.30
2018,07,17,07,20,16.30
2018,07,17,07,21,16.30
2018,07,17,07,22,16.40
2018,07,17,07,23,16.40
2018,07,17,07,24,16.50
2018,07,17,07,25,16.50
2018,07,17,07,26,16.60
2018,07,17,07,27,16.60
2018,07,17,07,28,16.60
2018,07,17,07,29,16.70
2018,07,17,07,30,16.70
2018,07,17,07,31,16.80
2018,07,17,07,32,16.80
2018,07,17,07,33,16.90
2018,07,17,07,34,16.90
2018,07,17,07,35,17.00
2018,07,17,07,36,17.10
2018,07,17,07,37,17.20
2018,07,17,07,38,17.20
2018,07,17,07,39,17.30
2018,07,17,07,40,17.40
2018,07,17,07,41,17.50
2018,07,17,07,42,17.60
2018,07,17,07,43,17.60
2018,07,17,07,44,17.70
2018,07,17,07,45,17.80
2018,07,17,07,46,17.90
2018,07,17,07,47,18.00
2018,07,17,07,48,18.10
2018,07,17,07,49,18.10
2018,07,17,07,50,18.20
2018,07,17,07,51,18.30
2018,07,17,07,52,18.40
2018,07,17,07,53,18.50
2018,07,17,07,54,18.70
2018,07,17,07,55,18.70
2018,07,17,07,56,18.90
2018,07,17,07,57,19.10
2018,07,17,07,58,19.20
2018,07,17,07,59,19.30
2018,07,17,08,00,19.50
2018,07,17,08,01,19.60
2018,07,17,08,02,19.70
2018,07,17,08,03,19.90
2018,07,17,08,04,19.90
2018,07,17,08,05,20.10
2018,07,17,08,06,20.20
2018,07,17,08,07,20.30
2018,07,17,08,08,20.40
2018,07,17,08,09,20.50
2018,07,17,08,10,20.60
2018,07,17,08,11,20.70
2018,07,17,08,12,20.80
2018,07,17,08,13,20.90
2018,07,17,08,14,20.90
2018,07,17,08,15,21.00
2018,07,17,08,16,21.00
2018,07,17,08,17,21.10
2018,07,17,08,18,21.10
2018,07,17,08,19,21.10
2018,07,17,08,20,21.20
2018,07,17,08,21,21.20
2018,07,17,08,22,21.20
2018,07,17,08,23,21.20
2018,07,17,08,24,21.20
2018,07,17,08,25,21.30
2018,07,17,08,26,21.30
2018,07,17,08,27,21.30
2018,07,17,08,28,21.30
2018,07,17,08,29,21.30
2018,07,17,08,30,21.30
2018,07,17,08,31,21.40
2018,07,17,08,32,21.40
2018,07,17,08,33,21.40
2018,07,17,08,34,21.50
2018,07,17,08,35,21.50
2018,07,17,08,36,21.60
2018,07,17,08,37,21.70
2018,07,17,08,38,21.80
2018,07,17,08,39,22.00
2018,07,17,08,40,22.10
2018,07,17,08,41,22.20
2018,07,17,08,42,22.30
2018,07,17,08,43,22.50
2018,07,17,08,44,22.60
2018,07,17,08,45,22.70
2018,07,17,08,46,22.80
2018,07,17,08,47,22.90
2018,07,17,08,48,23.00
2018,07,17,08,49,23.10
2018,07,17,08,50,23.20
2018,07,17,08,51,23.20
2018,07,17,08,52,23.20
2018,07,17,08,53,23.30
2018,07,17,08,54,23.30
2018,07,17,08,55,23.40
2018,07,17,08,56,23.40
2018,07,17,08,57,23.50
2018,07,17,08,58,23.60
2018,07,17,08,59,23.80
2018,07,17,09,00,23.90
2018,07,17,09,01,24.10
2018,07,17,09,02,24.20
2018,07,17,09,03,24.30
2018,07,17,09,04,24.30
2018,07,17,09,05,24.30
2018,07,17,09,06,24.40
2018,07,17,09,07,24.40
2018,07,17,09,08,24.40
2018,07,17,09,09,24.30
2018,07,17,09,10,24.30
2018,07,17,09,11,24.30
2018,07,17,09,12,24.30
2018,07,17,09,13,24.30
2018,07,17,09,14,24.40
2018,07,17,09,15,24.40
2018,07,17,09,16,24.40
2018,07,17,09,17,24.50
2018,07,17,09,18,24.60
2018,07,17,09,19,24.70
2018,07,17,09,20,24.80
2018,07,17,09,21,24.80
2018,07,17,09,22,24.90
2018,07,17,09,23,25.00
2018,07,17,09,24,25.10
2018,07,17,09,25,25.20
2018,07,17,09,26,25.30
2018,07,17,09,27,25.30
2018,07,17,09,28,25.30
2018,07,17,09,29,25.30
2018,07,17,09,30,25.30
2018,07,17,09,31,25.30
2018,07,17,09,32,25.30
2018,07,17,09,33,25.30
2018,07,17,09,34,25.30
2018,07,17,09,35,25.30
2018,07,17,09,36,25.40
2018,07,17,09,37,25.40
2018,07,17,09,38,25.30
2018,07,17,09,39,25.30
2018,07,17,09,40,25.20
2018,07,17,09,41,25.20
2018,07,17,09,42,25.20
2018,07,17,09,43,25.30
2018,07,17,09,44,25.40
2018,07,17,09,45,25.40
2018,07,17,09,46,25.50
2018,07,17,09,47,25.60
2018,07,17,09,48,25.60
2018,07,17,09,49,25.60
2018,07,17,09,50,25.60
2018,07,17,09,51,25.70
2018,07,17,09,52,25.70
2018,07,17,09,53,25.60
2018,07,17,09,54,25.70
2018,07,17,09,55,25.70
2018,07,17,09,56,25.70
2018,07,17,09,57,25.70
2018,07,17,09,58,25.70
2018,07,17,09,59,25.70
2018,07,17,10,00,25.70
2018,07,17,10,01,25.70
2018,07,17,10,02,25.60
2018,07,17,10,03,25.60
2018,07,17,10,04,25.60
2018,07,17,10,05,25.50
2018,07,17,10,06,25.50
2018,07,17,10,07,25.40
2018,07,17,10,08,25.30
2018,07,17,10,09,25.30
2018,07,17,10,10,25.30
2018,07,17,10,11,25.40
2018,07,17,10,12,25.60
2018,07,17,10,13,25.60
2018,07,17,10,14,25.70
2018,07,17,10,15,25.80
2018,07,17,10,16,25.90
2018,07,17,10,17,25.90
2018,07,17,10,18,26.00
2018,07,17,10,19,26.10
2018,07,17,10,20,26.10
2018,07,17,10,21,26.20
2018,07,17,10,22,26.20
2018,07,17,10,23,26.20
2018,07,17,10,24,26.20
2018,07,17,10,25,26.20
2018,07,17,10,26,26.30
2018,07,17,10,27,26.40
2018,07,17,10,28,26.50
2018,07,17,10,29,26.60
2018,07,17,10,30,26.60
2018,07,17,10,31,26.60
2018,07,17,10,32,26.60
2018,07,17,10,33,26.50
2018,07,17,10,34,26.50
2018,07,17,10,35,26.50
2018,07,17,10,36,26.50
2018,07,17,10,37,26.40
2018,07,17,10,38,26.40
2018,07,17,10,39,26.30
2018,07,17,10,40,26.30
2018,07,17,10,41,26.30
2018,07,17,10,42,26.20
2018,07,17,10,43,26.10
2018,07,17,10,44,26.00
2018,07,17,10,45,26.00
2018,07,17,10,46,26.00
2018,07,17,10,47,26.00
2018,07,17,10,48,26.00
2018,07,17,10,49,26.00
2018,07,17,10,50,26.00
2018,07,17,10,51,26.10
2018,07,17,10,52,26.10
2018,07,17,10,53,26.10
2018,07,17,10,54,26.20
2018,07,17,10,55,26.20
2018,07,17,10,56,26.20
2018,07,17,10,57,26.10
2018,07,17,10,58,26.10
2018,07,17,10,59,26.10
2018,07,17,11,00,26.20
2018,07,17,11,01,26.20
2018,07,17,11,02,26.20
2018,07,17,11,03,26.20
2018,07,17,11,04,26.20
2018,07,17,11,05,26.20
2018,07,17,11,06,26.20
2018,07,17,11,07,26.30
2018,07,17,11,08,26.30
2018,07,17,11,09,26.30
2018,07,17,11,10,26.30
2018,07,17,11,11,26.20
2018,07,17,11,12,26.20
2018,07,17,11,13,26.20
2018,07,17,11,14,26.20
2018,07,17,11,15,26.30
2018,07,17,11,16,26.30
2018,07,17,11,17,26.40
2018,07,17,11,18,26.50
2018,07,17,11,19,26.60
2018,07,17,11,20,26.70
2018,07,17,11,21,26.80
2018,07,17,11,22,26.90
2018,07,17,11,23,26.80
2018,07,17,11,24,26.80
2018,07,17,11,25,26.80
2018,07,17,11,26,26.80
2018,07,17,11,27,26.80
2018,07,17,11,28,26.70
2018,07,17,11,29,26.60
2018,07,17,11,30,26.50
2018,07,17,11,31,26.40
2018,07,17,11,32,26.40
2018,07,17,11,33,26.40
2018,07,17,11,34,26.40
2018,07,17,11,35,26.50
2018,07,17,11,36,26.60
2018,07,17,11,37,26.60
2018,07,17,11,38,26.70
2018,07,17,11,39,26.80
2018,07,17,11,40,26.80
2018,07,17,11,41,26.70
2018,07,17,11,42,26.80
2018,07,17,11,43,26.80
2018,07,17,11,44,26.80
2018,07,17,11,45,26.80
2018,07,17,11,46,26.80
2018,07,17,11,47,26.90
2018,07,17,11,48,26.90
2018,07,17,11,49,27.10
2018,07,17,11,50,27.20
2018,07,17,11,51,27.40
2018,07,17,11,52,27.50
2018,07,17,11,53,27.60
2018,07,17,11,54,27.70
2018,07,17,11,55,27.70
2018,07,17,11,56,27.70
2018,07,17,11,57,27.80
2018,07,17,11,58,27.80
2018,07,17,11,59,27.70
2018,07,17,12,00,27.70
2018,07,17,12,01,27.70
2018,07,17,12,02,27.70
2018,07,17,12,03,27.70
2018,07,17,12,04,27.80
2018,07,17,12,05,27.80
2018,07,17,12,06,27.80
2018,07,17,12,07,27.80
2018,07,17,12,08,27.80
2018,07,17,12,09,27.80
2018,07,17,12,10,27.70
2018,07,17,12,11,27.50
2018,07,17,12,12,27.40
2018,07,17,12,13,27.40
2018,07,17,12,14,27.30
2018,07,17,12,15,27.20
2018,07,17,12,16,27.10
2018,07,17,12,17,27.00
2018,07,17,12,18,26.90
2018,07,17,12,19,26.80
2018,07,17,12,20,26.70
2018,07,17,12,21,26.80
2018,07,17,12,22,26.80
2018,07,17,12,23,26.80
2018,07,17,12,24,26.80
2018,07,17,12,25,26.80
2018,07,17,12,26,26.90
2018,07,17,12,27,27.00
2018,07,17,12,28,26.90
2018,07,17,12,29,26.80
2018,07,17,12,30,26.80
2018,07,17,12,31,26.70
2018,07,17,12,32,26.70
2018,07,17,12,33,26.60
2018,07,17,12,34,26.60
2018,07,17,12,35,26.70
2018,07,17,12,36,26.80
2018,07,17,12,37,26.90
2018,07,17,12,38,26.90
2018,07,17,12,39,26.80
2018,07,17,12,40,26.80
2018,07,17,12,41,26.80
2018,07,17,12,42,26.90
2018,07,17,12,43,26.90
2018,07,17,12,44,27.00
2018,07,17,12,45,27.00
2018,07,17,12,46,27.00
2018,07,17,12,47,26.90
2018,07,17,12,48,26.90
2018,07,17,12,49,26.80
2018,07,17,12,50,26.70
2018,07,17,12,51,26.70
2018,07,17,12,52,26.80
2018,07,17,12,53,26.90
2018,07,17,12,54,27.00
2018,07,17,12,55,27.10
2018,07,17,12,56,27.10
2018,07,17,12,57,27.20
2018,07,17,12,58,27.20
2018,07,17,12,59,27.10
2018,07,17,13,00,27.00
2018,07,17,13,01,26.90
2018,07,17,13,02,26.80
2018,07,17,13,03,26.80
2018,07,17,13,04,26.70
2018,07,17,13,05,26.60
2018,07,17,13,06,26.50
2018,07,17,13,07,26.50
2018,07,17,13,08,26.40
2018,07,17,13,09,26.40
2018,07,17,13,10,26.50
2018,07,17,13,11,26.60
2018,07,17,13,12,26.70
2018,07,17,13,13,26.80
2018,07,17,13,14,26.80
2018,07,17,13,15,26.90
2018,07,17,13,16,27.00
2018,07,17,13,17,27.10
2018,07,17,13,18,27.20
2018,07,17,13,19,27.30
2018,07,17,13,20,27.40
2018,07,17,13,21,27.60
2018,07,17,13,22,27.70
2018,07,17,13,23,27.70
2018,07,17,13,24,27.70
2018,07,17,13,25,27.80
2018,07,17,13,26,27.80
2018,07,17,13,27,27.80
2018,07,17,13,28,27.80
2018,07,17,13,29,27.90
2018,07,17,13,30,27.90
2018,07,17,13,31,27.90
2018,07,17,13,32,27.90
2018,07,17,13,33,27.90
2018,07,17,13,34,27.90
2018,07,17,13,35,27.90
2018,07,17,13,36,27.90
2018,07,17,13,37,27.90
2018,07,17,13,38,27.90
2018,07,17,13,39,27.90
2018,07,17,13,40,28.00
2018,07,17,13,41,28.10
2018,07,17,13,42,28.20
2018,07,17,13,43,28.20
2018,07,17,13,44,28.30
2018,07,17,13,45,28.40
2018,07,17,13,46,28.50
2018,07,17,13,47,28.60
2018,07,17,13,48,28.70
2018,07,17,13,49,28.90
2018,07,17,13,50,29.00
2018,07,17,13,51,29.10
2018,07,17,13,52,29.20
2018,07,17,13,53,29.20
2018,07,17,13,54,29.30
2018,07,17,13,55,29.40
2018,07,17,13,56,29.50
2018,07,17,13,57,29.60
2018,07,17,13,58,29.70
2018,07,17,13,59,29.70
2018,07,17,14,00,29.90
2018,07,17,14,01,29.90
2018,07,17,14,02,29.90
2018,07,17,14,03,29.90
2018,07,17,14,04,29.80
2018,07,17,14,05,29.80
2018,07,17,14,06,29.90
2018,07,17,14,07,29.90
2018,07,17,14,08,30.00
2018,07,17,14,09,30.00
2018,07,17,14,10,30.10
2018,07,17,14,11,30.20
2018,07,17,14,12,30.20
2018,07,17,14,13,30.20
2018,07,17,14,14,30.10
2018,07,17,14,15,30.10
2018,07,17,14,16,30.10
2018,07,17,14,17,30.10
2018,07,17,14,18,30.10
2018,07,17,14,19,30.10
2018,07,17,14,20,30.20
2018,07,17,14,21,30.20
2018,07,17,14,22,30.20
2018,07,17,14,23,30.20
2018,07,17,14,24,30.30
2018,07,17,14,25,30.40
2018,07,17,14,26,30.50
2018,07,17,14,27,30.60
2018,07,17,14,28,30.60
2018,07,17,14,29,30.60
2018,07,17,14,30,30.60
2018,07,17,14,31,30.70
2018,07,17,14,32,30.70
2018,07,17,14,33,30.80
2018,07,17,14,34,30.80
2018,07,17,14,35,30.90
2018,07,17,14,36,31.00
2018,07,17,14,37,31.10
2018,07,17,14,38,31.20
2018,07,17,14,39,31.20
2018,07,17,14,40,31.30
2018,07,17,14,41,31.40
2018,07,17,14,42,31.50
2018,07,17,14,43,31.60
2018,07,17,14,44,31.60
2018,07,17,14,45,31.50
2018,07,17,14,46,31.40
2018,07,17,14,47,31.40
2018,07,17,14,48,31.40
2018,07,17,14,49,31.40
2018,07,17,14,50,31.40
2018,07,17,14,51,31.40
2018,07,17,14,52,31.30
2018,07,17,14,53,31.20
2018,07,17,14,54,31.10
2018,07,17,14,55,31.00
2018,07,17,14,56,30.90
2018,07,17,14,57,30.80
2018,07,17,14,58,30.80
2018,07,17,14,59,30.80
2018,07,17,15,00,30.80
2018,07,17,15,01,30.90
2018,07,17,15,02,30.90
2018,07,17,15,03,30.90
2018,07,17,15,04,30.90
2018,07,17,15,05,30.90
2018,07,17,15,06,31.00
2018,07,17,15,07,31.00
2018,07,17,15,08,31.00
2018,07,17,15,09,31.10
2018,07,17,15,10,31.10
2018,07,17,15,11,31.10
2018,07,17,15,12,31.10
2018,07,17,15,13,31.20
2018,07,17,15,14,31.10
2018,07,17,15,15,31.10
2018,07,17,15,16,31.10
2018,07,17,15,17,31.10
2018,07,17,15,18,31.10
2018,07,17,15,19,31.10
2018,07,17,15,20,31.10
2018,07,17,15,21,31.20
2018,07,17,15,22,31.30
2018,07,17,15,23,31.30
2018,07,17,15,24,31.30
2018,07,17,15,25,31.30
2018,07,17,15,26,31.30
2018,07,17,15,27,31.30
2018,07,17,15,28,31.30
2018,07,17,15,29,31.30
2018,07,17,15,30,31.40
2018,07,17,15,31,31.40
2018,07,17,15,32,31.50
2018,07,17,15,33,31.50
2018,07,17,15,34,31.60
2018,07,17,15,35,31.60
2018,07,17,15,36,31.60
2018,07,17,15,37,31.60
2018,07,17,15,38,31.60
2018,07,17,15,39,31.50
2018,07,17,15,40,31.50
2018,07,17,15,41,31.50
2018,07,17,15,42,31.50
2018,07,17,15,43,31.40
2018,07,17,15,44,31.40
2018,07,17,15,45,31.40
2018,07,17,15,46,31.40
2018,07,17,15,47,31.50
2018,07,17,15,48,31.50
2018,07,17,15,49,31.40
2018,07,17,15,50,31.40
2018,07,17,15,51,31.40
2018,07,17,15,52,31.30
2018,07,17,15,53,31.20
2018,07,17,15,54,31.20
2018,07,17,15,55,31.20
2018,07,17,15,56,31.20
2018,07,17,15,57,31.20
2018,07,17,15,58,31.20
2018,07,17,15,59,31.20
2018,07,17,16,00,31.10
2018,07,17,16,01,31.00
2018,07,17,16,02,31.00
2018,07,17,16,03,31.00
2018,07,17,16,04,31.00
2018,07,17,16,05,31.00
2018,07,17,16,06,31.10
2018,07,17,16,07,31.10
2018,07,17,16,08,31.10
2018,07,17,16,09,31.20
2018,07,17,16,10,31.20
2018,07,17,16,11,31.20
2018,07,17,16,12,31.20
2018,07,17,16,13,31.10
2018,07,17,16,14,31.10
2018,07,17,16,15,31.10
2018,07,17,16,16,31.10
2018,07,17,16,17,31.10
2018,07,17,16,18,31.10
2018,07,17,16,19,31.00
2018,07,17,16,20,31.00
2018,07,17,16,21,30.90
2018,07,17,16,22,30.90
2018,07,17,16,23,30.90
2018,07,17,16,24,30.90
2018,07,17,16,25,30.90
2018,07,17,16,26,30.90
2018,07,17,16,27,30.90
2018,07,17,16,28,30.90
2018,07,17,16,29,30.90
2018,07,17,16,30,30.80
2018,07,17,16,31,30.80
2018,07,17,16,32,30.80
2018,07,17,16,33,30.80
2018,07,17,16,34,30.80
2018,07,17,16,35,30.80
2018,07,17,16,36,30.80
2018,07,17,16,37,30.80
2018,07,17,16,38,30.80
2018,07,17,16,39,30.80
2018,07,17,16,40,30.70
2018,07,17,16,41,30.70
2018,07,17,16,42,30.70
2018,07,17,16,43,30.70
2018,07,17,16,44,30.60
2018,07,17,16,45,30.60
2018,07,17,16,46,30.60
2018,07,17,16,47,30.60
2018,07,17,16,48,30.60
2018,07,17,16,49,30.50
2018,07,17,16,50,30.50
2018,07,17,16,51,30.50
2018,07,17,16,52,30.40
2018,07,17,16,53,30.40
2018,07,17,16,54,30.40
2018,07,17,16,55,30.40
2018,07,17,16,56,30.40
2018,07,17,16,57,30.40
2018,07,17,16,58,30.30
2018,07,17,16,59,30.30
2018,07,17,17,00,30.30
2018,07,17,17,01,30.30
2018,07,17,17,02,30.30
2018,07,17,17,03,30.30
2018,07,17,17,04,30.30
2018,07,17,17,05,30.30
2018,07,17,17,06,30.30
2018,07,17,17,07,30.20
2018,07,17,17,08,30.20
2018,07,17,17,09,30.20
2018,07,17,17,10,30.20
2018,07,17,17,11,30.20
2018,07,17,17,12,30.20
2018,07,17,17,13,30.10
2018,07,17,17,14,30.10
2018,07,17,17,15,30.10
2018,07,17,17,16,30.10
2018,07,17,17,17,30.10
2018,07,17,17,18,30.00
2018,07,17,17,19,30.00